• In Hungary
  • List of Countries
  • For 7 days
  • Water Temperature
  • Satellite Maps
  • Weather Map
  • News
  • Weather Widgets
  • user-avatar
    Login

    Hourly Weather Kozova

    Today, 23 September, Sunday

    Time Temperature Precipitation Wind Pressure Humidity
    00:00 +7°C° 0 mm 2 mps 731 mmHg 87%
    01:00 +7°C° 0 mm 2 mps 731 mmHg 85%
    02:00 +8°C° 0 mm 1 mps 731 mmHg 86%
    03:00 +7°C° 0 mm 2 mps 731 mmHg 85%
    04:00 +7°C° 0 mm 2 mps 731 mmHg 84%
    05:00 +7°C° 0 mm 2 mps 731 mmHg 84%
    06:00 +8°C° 0 mm 2 mps 731 mmHg 81%
    07:00 +9°C° 0 mm 2 mps 731 mmHg 78%
    08:00 +10°C° 0 mm 3 mps 731 mmHg 76%
    09:00 +12°C° 0 mm 3 mps 731 mmHg 69%
    10:00 +13°C° 0 mm 4 mps 731 mmHg 62%
    11:00 +15°C° 0 mm 4 mps 731 mmHg 55%
    12:00 +17°C° 0 mm 4 mps 731 mmHg 52%
    13:00 +17°C° 0 mm 4 mps 730 mmHg 49%
    14:00 +18°C° 0 mm 4 mps 730 mmHg 46%
    15:00 +18°C° 0 mm 4 mps 730 mmHg 51%
    16:00 +17°C° 0 mm 3 mps 729 mmHg 55%
    17:00 +17°C° 0 mm 3 mps 729 mmHg 59%
    18:00 +16°C° 0 mm 3 mps 728 mmHg 61%
    19:00 +15°C° 0 mm 2 mps 728 mmHg 64%
    20:00 +13°C° 0 mm 2 mps 727 mmHg 66%
    21:00 +13°C° 0 mm 3 mps 726 mmHg 63%
    22:00 +13°C° 0 mm 5 mps 726 mmHg 59%
    23:00 +13°C° 0 mm 6 mps 725 mmHg 56%

    Tomorrow, 24 September, Monday

    Time Temperature Precipitation Wind Pressure Humidity
    00:00 +13°C° 0 mm 6 mps 723 mmHg 56%
    01:00 +13°C° 0 mm 6 mps 722 mmHg 56%
    02:00 +13°C° 0 mm 6 mps 721 mmHg 57%
    03:00 +13°C° 0.4 mm 6 mps 720 mmHg 63%
    04:00 +13°C° 0.4 mm 6 mps 719 mmHg 69%
    05:00 +13°C° 0.4 mm 5 mps 718 mmHg 75%
    06:00 +13°C° 1.9 mm 6 mps 719 mmHg 79%
    07:00 +13°C° 1.9 mm 6 mps 719 mmHg 82%
    08:00 +14°C° 1.9 mm 7 mps 720 mmHg 86%
    09:00 +11°C° 0.6 mm 8 mps 721 mmHg 86%
    10:00 +10°C° 0.6 mm 9 mps 722 mmHg 85%
    11:00 +8°C° 0.6 mm 10 mps 724 mmHg 84%
    12:00 +8°C° 0.1 mm 10 mps 725 mmHg 81%
    13:00 +8°C° 0.1 mm 9 mps 726 mmHg 77%
    14:00 +10°C° 0.1 mm 9 mps 726 mmHg 73%
    15:00 +8°C° 0.1 mm 9 mps 727 mmHg 72%
    16:00 +8°C° 0.1 mm 9 mps 727 mmHg 71%
    17:00 +8°C° 0.1 mm 9 mps 728 mmHg 71%
    18:00 +7°C° 0 mm 8 mps 728 mmHg 71%
    19:00 +6°C° 0 mm 7 mps 729 mmHg 71%
    20:00 +5°C° 0 mm 6 mps 729 mmHg 71%
    21:00 +5°C° 0 mm 7 mps 729 mmHg 71%
    22:00 +5°C° 0 mm 7 mps 729 mmHg 70%
    23:00 +4°C° 0 mm 7 mps 730 mmHg 69%

    Day after tomorrow, 25 September, Tuesday

    Time Temperature Precipitation Wind Pressure Humidity
    00:00 +4°C° 0 mm 7 mps 730 mmHg 69%
    01:00 +4°C° 0 mm 8 mps 730 mmHg 69%
    02:00 +4°C° 0 mm 8 mps 730 mmHg 69%
    03:00 +4°C° 0.3 mm 8 mps 730 mmHg 74%
    04:00 +3°C° 0.3 mm 9 mps 731 mmHg 79%
    05:00 +3°C° 0.3 mm 9 mps 731 mmHg 84%
    06:00 +3°C° 0.2 mm 9 mps 732 mmHg 83%
    07:00 +3°C° 0.2 mm 9 mps 733 mmHg 81%
    08:00 +2°C° 0.2 mm 8 mps 734 mmHg 80%
    09:00 +5°C° 0 mm 8 mps 735 mmHg 74%
    10:00 +6°C° 0 mm 8 mps 735 mmHg 67%
    11:00 +7°C° 0 mm 8 mps 736 mmHg 60%
    12:00 +7°C° 0.2 mm 8 mps 736 mmHg 58%
    13:00 +7°C° 0.2 mm 8 mps 736 mmHg 56%
    14:00 +8°C° 0.2 mm 9 mps 736 mmHg 54%
    15:00 +7°C° 0.2 mm 8 mps 736 mmHg 57%
    16:00 +8°C° 0.2 mm 7 mps 737 mmHg 60%
    17:00 +6°C° 0.2 mm 7 mps 737 mmHg 62%
    18:00 +5°C° 0 mm 6 mps 737 mmHg 66%
    19:00 +5°C° 0 mm 5 mps 738 mmHg 70%
    20:00 +4°C° 0 mm 4 mps 738 mmHg 73%
    21:00 +4°C° 0 mm 4 mps 739 mmHg 74%
    22:00 +3°C° 0 mm 5 mps 739 mmHg 75%
    23:00 +3°C° 0 mm 5 mps 739 mmHg 76%

    26 September, Wednesday

    Time Temperature Precipitation Wind Pressure Humidity
    00:00 +2°C° 0 mm 5 mps 740 mmHg 77%
    01:00 +2°C° 0 mm 5 mps 740 mmHg 78%
    02:00 +1°C° 0 mm 4 mps 740 mmHg 79%
    03:00 +1°C° 0 mm 4 mps 741 mmHg 80%
    04:00 0°C° 0 mm 4 mps 741 mmHg 82%
    05:00 0°C° 0 mm 4 mps 741 mmHg 83%
    06:00 +1°C° 0 mm 4 mps 741 mmHg 81%
    07:00 +1°C° 0 mm 4 mps 742 mmHg 78%
    08:00 +3°C° 0 mm 4 mps 742 mmHg 76%
    09:00 +5°C° 0 mm 4 mps 742 mmHg 69%
    10:00 +6°C° 0 mm 4 mps 742 mmHg 63%
    11:00 +8°C° 0 mm 4 mps 743 mmHg 57%
    12:00 +10°C° 0 mm 4 mps 742 mmHg 54%
    13:00 +10°C° 0 mm 4 mps 742 mmHg 50%
    14:00 +11°C° 0 mm 3 mps 741 mmHg 47%
    15:00 +10°C° 0 mm 3 mps 741 mmHg 50%
    16:00 +10°C° 0 mm 3 mps 741 mmHg 53%
    17:00 +10°C° 0 mm 2 mps 740 mmHg 56%
    18:00 +8°C° 0 mm 2 mps 740 mmHg 59%
    19:00 +7°C° 0 mm 2 mps 740 mmHg 61%
    20:00 +7°C° 0 mm 1 mps 740 mmHg 64%
    21:00 +5°C° 0 mm 2 mps 740 mmHg 64%
    22:00 +5°C° 0 mm 2 mps 739 mmHg 64%
    23:00 +4°C° 0 mm 3 mps 739 mmHg 64%

    27 September, Thursday

    Time Temperature Precipitation Wind Pressure Humidity
    00:00 +4°C° 0 mm 3 mps 739 mmHg 62%
    01:00 +5°C° 0 mm 3 mps 738 mmHg 60%
    02:00 +5°C° 0 mm 3 mps 738 mmHg 58%
    03:00 +5°C° 0 mm 4 mps 737 mmHg 57%
    04:00 +5°C° 0 mm 4 mps 737 mmHg 57%
    05:00 +5°C° 0 mm 4 mps 736 mmHg 56%
    06:00 +6°C° 0 mm 4 mps 736 mmHg 54%
    07:00 +7°C° 0 mm 5 mps 736 mmHg 52%
    08:00 +7°C° 0 mm 5 mps 736 mmHg 50%
    09:00 +8°C° 0 mm 5 mps 736 mmHg 52%
    10:00 +8°C° 0 mm 6 mps 736 mmHg 53%
    11:00 +9°C° 0 mm 6 mps 736 mmHg 55%
    12:00 +10°C° 0.1 mm 6 mps 735 mmHg 56%
    13:00 +10°C° 0.1 mm 6 mps 735 mmHg 57%
    14:00 +11°C° 0.1 mm 6 mps 735 mmHg 58%
    15:00 +13°C° 0 mm 6 mps 735 mmHg 58%
    16:00 +13°C° 0 mm 5 mps 735 mmHg 59%
    17:00 +14°C° 0 mm 4 mps 734 mmHg 60%
    18:00 +13°C° 0 mm 4 mps 735 mmHg 61%
    19:00 +12°C° 0 mm 4 mps 735 mmHg 61%
    20:00 +11°C° 0 mm 4 mps 735 mmHg 62%
    21:00 +11°C° 0 mm 4 mps 735 mmHg 62%
    22:00 +10°C° 0 mm 4 mps 735 mmHg 63%
    23:00 +10°C° 0 mm 4 mps 735 mmHg 63%

    28 September, Friday

    Time Temperature Precipitation Wind Pressure Humidity
    00:00 +10°C° 0 mm 3 mps 734 mmHg 65%
    01:00 +9°C° 0 mm 3 mps 734 mmHg 66%
    02:00 +9°C° 0 mm 3 mps 734 mmHg 68%
    03:00 +9°C° 0 mm 3 mps 734 mmHg 68%
    04:00 +9°C° 0 mm 3 mps 734 mmHg 69%
    05:00 +9°C° 0 mm 2 mps 733 mmHg 70%
    06:00 +10°C° 0 mm 3 mps 733 mmHg 69%
    07:00 +11°C° 0 mm 3 mps 733 mmHg 68%
    08:00 +11°C° 0 mm 3 mps 733 mmHg 68%
    09:00 +13°C° 0 mm 3 mps 733 mmHg 64%
    10:00 +15°C° 0 mm 4 mps 733 mmHg 60%
    11:00 +18°C° 0 mm 4 mps 733 mmHg 57%
    12:00 +19°C° 0 mm 4 mps 733 mmHg 55%
    13:00 +20°C° 0 mm 5 mps 733 mmHg 54%
    14:00 +21°C° 0 mm 5 mps 732 mmHg 53%
    15:00 +20°C° 0 mm 4 mps 732 mmHg 57%
    16:00 +19°C° 0 mm 3 mps 732 mmHg 61%
    17:00 +19°C° 0 mm 3 mps 732 mmHg 66%
    18:00 +17°C° 0 mm 2 mps 732 mmHg 71%
    19:00 +15°C° 0 mm 2 mps 732 mmHg 77%
    20:00 +14°C° 0 mm 1 mps 732 mmHg 82%
    21:00 +13°C° 0 mm 1 mps 732 mmHg 83%
    22:00 +13°C° 0 mm 1 mps 733 mmHg 85%
    23:00 +13°C° 0 mm 1 mps 733 mmHg 86%
    Show more